Regional Weather Roundup
Issued by NWS

Home | Current Version | Previous Version | Text Only | Print | Product List | Glossary Off
Versions: 1 2 3 4 5 6 7 8 9 10 11 12 13 14 15 16 17 18 19 20 21 22 23 24 25 26 27 28 29 30 31 32 33 34 35 36 37 38 39 40 41 42 43 44 45 46 47 48 49 50

000
ASUS43 KIND 300909
RWRIN

WEATHER ROUNDUP FOR INDIANA
NATIONAL WEATHER SERVICE INDIANAPOLIS IN
500 AM EDT SAT JUL 30 2016

NOTE: "FAIR" INDICATES FEW OR NO CLOUDS BELOW 12,000 FEET WITH NO
SIGNIFICANT WEATHER AND/OR OBSTRUCTIONS TO VISIBILITY.

* - STATION DOES NOT REPORT WEATHER SUCH AS PRECIPITATION OR FOG.

+ - STATION NOT QUALITY CONTROLLED BY THE NATIONAL WEATHER SERVICE.
    USE DATA WITH CAUTION...ESPECIALLY DEWPOINT AND RELATIVE
    HUMIDITY OBSERVATIONS.

INZ001>003-010>013-019-020-301000-
NORTHWEST INDIANA

CITY           SKY/WX    TMP DP  RH WIND       PRES   REMARKS
GARY /AIRPORT/ PTCLDY    68  68 100 CALM      29.92S
KNOX *+        MOCLDY    64  64 100 CALM      29.92S
LA PORTE +     CLOUDY   N/A N/A N/A E6        29.93F FOG
MICHIGAN CITY+ CLOUDY    66  66 100 MISG      29.93S
MONTICELLO +   FOG       67  64  87 CALM      29.91S VSB 1/4
RENSSELAER +   FOG       64  64 100 CALM      29.91F VSB 1/2
VALPARAISO     CLOUDY    67  66  97 E3        29.93S

$$

LMZ046-743>745-301000-
SOUTHERN LAKE MICHIGAN

STATION/POSITION TIME  TEMP    WIND        PRES    WAVE
                       AIR SEA DIR/SP/G            HT
                 (UTC) (F)     (DEG/KT/KT) (MB)    (FT)
BURNS HARBOR     0805   68      80/  5/  8 1013.9S
MICHIGAN CITY    0800   69     100/  5/  6   N/A
5NW MICH CITY    0900   70 76  130/ 12/ 14   N/A     2

$$

INZ004-005-014>016-021>024-301000-
NORTH CENTRAL INDIANA

CITY           SKY/WX    TMP DP  RH WIND       PRES   REMARKS
GOSHEN         CLOUDY    70  65  84 E6        29.93F HAZE
LOGANSPORT +   FOG       68  66  94 E5        29.92F VSB 1/2
PERU/GRISSOM   CLOUDY    69  69 100 E5        29.91S
ROCHESTER +    CLOUDY    70  70 100 E5        29.93S FOG
SOUTH BEND     CLOUDY    68  66  93 E5        29.93F
WARSAW +       CLOUDY    68  68 100 CALM      29.93S FOG

$$

INZ006>009-017-018-025>027-301000-
NORTHEAST INDIANA

CITY           SKY/WX    TMP DP  RH WIND       PRES   REMARKS
ANGOLA *+        N/A     66  57  72 NE3       29.94S
AUBURN +       PTCLDY    66  63  88 N3        29.94R
FORT WAYNE     MOCLDY    69  67  93 E5        29.92F FOG
HUNTINGTON +   CLOUDY    69  68  96 CALM      29.92S FOG

$$

INZ028-029-035-036-043>045-051>053-301000-
WEST CENTRAL INDIANA

CITY           SKY/WX    TMP DP  RH WIND       PRES   REMARKS
CRAWFORDSVL +  FOG       63  63 100 CALM      29.92R VSB 1/4
GREENCASTLE +  CLEAR     64  64 100 CALM      29.93R FOG
LAFAYETTE      CLOUDY    67  67 100 NE5       29.90S FOG
TERRE HAUTE    CLEAR     69  67  93 W3        29.92R

$$

INZ030>032-037>040-046>048-054>057-064-065-301000-
CENTRAL INDIANA

CITY           SKY/WX    TMP DP  RH WIND       PRES   REMARKS
FISHERS *+     PTCLDY    64  64 100 CALM      29.92R
INDIANAPOLIS   FOG       69  68  96 SW5       29.92R VSB 1/4
-EAGLE CREEK   CLEAR     70  67  90 CALM      29.91R
KOKOMO *+      CLOUDY    66  63  88 E5        29.92S VSB 1/2
MARION +       FOG       67  67 100 E3        29.93S VSB 1/4
MT COMFORT *+  CLOUDY    63  63 100 CALM      29.92S VSB 1/4
SHELBYVILLE    CLEAR     67  63  87 SE3       29.91R FOG
ZIONSVILLE +   FOG       63  63  99 CALM      29.93R VSB 1/4

$$

INZ033-034-041-042-049-050-058-059-301000-
EAST CENTRAL INDIANA

CITY           SKY/WX    TMP DP  RH WIND       PRES   REMARKS
MUNCIE         FOG       68  66  93 CALM      29.93R VSB 1/4

$$

INZ060-061-067>069-081>083-085>088-301000-
SOUTHWEST INDIANA

CITY           SKY/WX    TMP DP  RH WIND       PRES   REMARKS
EVANSVILLE     PTCLDY    72  70  93 CALM      29.92F
HUNTINGBURG *+ CLOUDY    72  68  88 SW3       29.93S
WASHINGTON +   CLOUDY    72  72 100 MISG      29.92S

$$

INZ062-063-066-070>080-084-089>092-301000-
SOUTH CENTRAL AND SOUTHEAST INDIANA

CITY           SKY/WX    TMP DP  RH WIND       PRES   REMARKS
BLOOMINGTON    MOCLDY    70  68  93 CALM      29.93R FOG
MADISON *+     CLOUDY    72  70  94 CALM      29.94R VSB 1/2
NORTH VERNON + CLEAR    N/A N/A N/A CALM      29.93R HAZE
SEYMOUR +      FOG       70  70 100 CALM      29.92R VSB 1/4

$$





USA.gov is the U.S. government's official web portal to all federal, state and local government web resources and services.